CW7427 Weather Reports


Display with metric or nautical units.
time (UTC)temp
F
wind
direction
speed
MPH
gust
MPH
rain 1hr
in
rain 24hr
in
rain mn
in
humidity
%
barometer
mb
20260508222450 59 5 0.0 1.0 0.00 0.00 0.00 72 1023.1
20260508221930 59 5 0.0 0.0 0.00 0.00 0.00 72 1023.0
20260508221416 59 5 0.0 0.0 0.00 0.00 0.00 73 1023.0
20260508220911 57 5 0.0 0.0 0.00 0.00 0.00 76 1023.0
20260508220411 56 5 0.0 0.0 0.00 0.00 0.00 77 1023.0
20260508215841 55 5 0.0 0.0 0.00 0.00 0.00 79 1023.0
20260508215601 53 5 0.0 0.0 0.00 0.00 0.00 81 1022.9
20260508214828 53 250 0.0 0.0 0.00 0.00 0.00 82 1022.9
20260508214326 53 250 0.0 0.0 0.00 0.00 0.00 83 1022.8
20260508213812 52 250 0.0 0.0 0.00 0.00 0.00 84 1022.7
20260508213300 51 250 0.0 0.0 0.00 0.00 0.00 85 1022.6
20260508212755 50 250 0.0 0.0 0.00 0.00 0.00 82 1022.5
20260508212248 50 259 0.0 0.0 0.00 0.00 0.00 82 1022.4
20260508212004 50 259 0.0 0.0 0.00 0.00 0.00 82 1022.3
20260508211233 50 259 0.0 0.0 0.00 0.00 0.00 82 1022.3
20260508211215 50 259 0.0 0.0 0.00 0.00 0.00 82 1022.2
20260508210217 50 259 0.0 0.0 0.00 0.00 0.00 81 1022.2
20260508205707 50 259 0.0 0.0 0.00 0.00 0.00 81 1022.1
20260508205156 50 259 0.0 0.0 0.00 0.00 0.00 80 1022.0
20260508204653 50 259 0.0 1.0 0.00 0.00 0.00 80 1022.0
20260508204143 50 259 0.0 1.0 0.00 0.00 0.00 79 1021.9
20260508203628 51 246 0.0 0.0 0.00 0.00 0.00 79 1021.9
20260508203039 51 246 0.0 0.0 0.00 0.00 0.00 79 1021.9
20260508202803 51 246 0.0 0.0 0.00 0.00 0.00 79 1021.8
20260508202257 51 246 0.0 0.0 0.00 0.00 0.00 79 1021.7
20260508201522 51 246 0.0 0.0 0.00 0.00 0.00 79 1021.6
20260508200940 52 246 0.0 0.0 0.00 0.00 0.00 79 1021.7
20260508200432 52 246 0.0 0.0 0.00 0.00 0.00 79 1021.6
20260508195927 52 246 0.0 0.0 0.00 0.00 0.00 79 1021.6
20260508195350 52 246 0.0 0.0 0.00 0.00 0.00 80 1021.4
20260508194840 52 246 0.0 0.0 0.00 0.00 0.00 80 1021.3
20260508194322 52 246 0.0 0.0 0.00 0.00 0.00 80 1021.3
20260508193758 53 246 0.0 0.0 0.00 0.00 0.00 80 1021.3
20260508193242 53 246 0.0 0.0 0.00 0.00 0.00 81 1021.1
20260508192736 53 246 0.0 0.0 0.00 0.00 0.00 81 1021.0
20260508192442 53 246 0.0 0.0 0.00 0.00 0.00 81 1020.9
20260508191947 53 246 0.0 0.0 0.00 0.00 0.00 81 1020.8
20260508191202 53 246 0.0 0.0 0.00 0.00 0.00 82 1020.8
20260508190702 53 246 0.0 0.0 0.00 0.00 0.00 82 1020.8
20260508190142 52 246 0.0 0.0 0.00 0.00 0.00 81 1020.8
20260508185633 52 246 0.0 0.0 0.00 0.00 0.00 81 1020.8
20260508185105 52 246 0.0 0.0 0.00 0.00 0.00 81 1020.7
20260508184542 52 246 0.0 0.0 0.00 0.00 0.00 81 1020.7
20260508184040 52 246 0.0 0.0 0.00 0.00 0.00 81 1020.7
20260508183540 52 246 0.0 0.0 0.00 0.00 0.00 81 1020.5
20260508183245 52 246 0.0 0.0 0.00 0.00 0.00 81 1020.5
20260508182508 52 246 0.0 0.0 0.00 0.00 0.00 81 1020.5
20260508182004 52 246 0.0 0.0 0.00 0.00 0.00 81 1020.5
20260508181438 52 246 0.0 0.0 0.00 0.00 0.00 81 1020.4
20260508180936 52 246 0.0 0.0 0.00 0.00 0.00 81 1020.3
20260508180423 52 246 0.0 0.0 0.00 0.00 0.00 81 1020.3
20260508175915 52 246 0.0 0.0 0.00 0.00 0.00 80 1020.3
20260508175412 52 246 0.0 0.0 0.00 0.00 0.00 81 1020.3
20260508174846 52 246 0.0 0.0 0.00 0.00 0.00 80 1020.3
20260508174339 52 246 0.0 0.0 0.00 0.00 0.00 81 1020.3
20260508173833 52 246 0.0 0.0 0.00 0.00 0.00 80 1020.3
20260508173323 52 246 0.0 0.0 0.00 0.00 0.00 81 1020.3
20260508173239 52 246 0.0 0.0 0.00 0.00 0.00 81 1020.3
20260508172244 52 246 0.0 0.0 0.00 0.00 0.00 81 1020.3
20260508171732 52 246 0.0 0.0 0.00 0.00 0.00 81 1020.2
20260508171442 52 246 0.0 0.0 0.00 0.00 0.00 81 1020.2
20260508170705 52 246 0.0 0.0 0.00 0.00 0.00 81 1020.2
20260508170202 52 246 0.0 0.0 0.00 0.00 0.00 82 1020.3
20260508165637 52 246 0.0 0.0 0.00 0.00 0.00 82 1020.2
20260508165136 51 246 0.0 0.0 0.00 0.00 0.00 82 1020.2
20260508164618 51 246 0.0 0.0 0.00 0.00 0.00 82 1020.3
20260508164118 51 246 0.0 0.0 0.00 0.00 0.00 82 1020.3
20260508163615 51 246 0.0 0.0 0.00 0.00 0.00 83 1020.3
20260508163116 51 246 0.0 0.0 0.00 0.00 0.00 83 1020.2
20260508162606 51 246 0.0 0.0 0.00 0.00 0.00 83 1020.2
20260508162106 51 246 0.0 0.0 0.00 0.00 0.00 83 1020.2
20260508161554 50 246 0.0 0.0 0.00 0.00 0.00 83 1020.1
20260508161050 50 246 0.0 0.0 0.00 0.00 0.00 83 1020.1
20260508160545 50 246 0.0 0.0 0.00 0.00 0.00 83 1020.0
20260508160033 50 246 0.0 0.0 0.00 0.00 0.00 83 1020.0
20260508155525 50 246 0.0 0.0 0.00 0.00 0.00 83 1020.0
20260508155225 50 246 0.0 0.0 0.00 0.00 0.00 82 1019.9
20260508154453 50 246 0.0 0.0 0.00 0.00 0.00 82 1020.0
20260508153943 51 246 0.0 0.0 0.00 0.00 0.00 82 1020.0
20260508153443 51 246 0.0 0.0 0.00 0.00 0.00 82 1020.0
20260508152936 51 246 0.0 0.0 0.00 0.00 0.00 82 1020.0
20260508152421 51 246 0.0 0.0 0.00 0.00 0.00 81 1020.1
20260508151856 51 246 0.0 0.0 0.00 0.00 0.00 81 1020.1
20260508151355 51 246 0.0 0.0 0.00 0.00 0.00 80 1020.1
20260508151314 52 246 0.0 0.0 0.00 0.00 0.00 80 1020.1
20260508150329 52 246 0.0 0.0 0.00 0.00 0.00 80 1020.1
20260508145819 52 246 0.0 0.0 0.00 0.00 0.00 80 1020.1
20260508145301 52 246 0.0 0.0 0.00 0.00 0.00 79 1020.1
20260508144731 52 246 0.0 0.0 0.00 0.00 0.00 79 1020.1
20260508144141 52 246 0.0 0.0 0.00 0.00 0.00 78 1020.0
20260508143642 53 246 0.0 0.0 0.00 0.00 0.00 78 1020.1
20260508143131 53 246 0.0 0.0 0.00 0.00 0.00 77 1020.1
20260508142555 53 246 0.0 0.0 0.00 0.00 0.00 77 1020.1
20260508142045 54 246 0.0 0.0 0.00 0.00 0.00 77 1020.1
20260508141535 54 246 0.0 0.0 0.00 0.00 0.00 77 1020.0
20260508141026 54 246 0.0 0.0 0.00 0.00 0.00 77 1020.1
20260508140519 54 246 0.0 0.0 0.00 0.00 0.00 77 1020.0
20260508140019 54 246 0.0 0.0 0.00 0.00 0.00 77 1019.9
20260508135502 54 246 0.0 0.0 0.00 0.00 0.00 77 1019.8
20260508134958 53 246 0.0 0.0 0.00 0.00 0.00 77 1019.9
20260508134447 53 246 0.0 0.0 0.00 0.00 0.00 77 1019.8
20260508133936 53 246 0.0 0.0 0.00 0.00 0.00 78 1019.9
20260508133437 53 246 0.0 0.0 0.00 0.00 0.00 78 1019.9
20260508132935 53 246 0.0 0.0 0.00 0.00 0.00 78 1019.9
20260508132652 53 246 0.0 0.0 0.00 0.00 0.00 77 1019.9
20260508132150 54 246 0.0 0.0 0.00 0.00 0.00 76 1019.8
20260508131403 54 246 0.0 0.0 0.00 0.00 0.00 76 1019.9
20260508130903 54 246 0.0 0.0 0.00 0.00 0.00 76 1019.9
20260508130353 53 246 0.0 0.0 0.00 0.00 0.00 78 1019.9
20260508125847 53 246 0.0 0.0 0.00 0.00 0.00 77 1019.9
20260508125606 53 246 0.0 0.0 0.00 0.00 0.00 76 1019.9
20260508124830 54 246 0.0 0.0 0.00 0.00 0.00 76 1019.9
20260508124331 54 246 0.0 0.0 0.00 0.00 0.00 75 1019.9
20260508123831 54 246 0.0 0.0 0.00 0.00 0.00 75 1019.8
20260508123554 54 246 0.0 0.0 0.00 0.00 0.00 75 1019.7
20260508122819 54 246 0.0 0.0 0.00 0.00 0.00 75 1019.7
20260508122242 54 246 0.0 0.0 0.00 0.00 0.00 75 1019.7
20260508121734 54 246 0.0 0.0 0.00 0.00 0.00 75 1019.7
20260508121234 54 246 0.0 0.0 0.00 0.00 0.00 75 1019.9
20260508120729 54 246 0.0 0.0 0.00 0.00 0.00 75 1019.9
20260508120207 54 246 0.0 0.0 0.00 0.00 0.00 75 1019.8
20260508115645 54 246 0.0 0.0 0.00 0.00 0.00 74 1019.9
20260508115138 54 246 0.0 0.0 0.00 0.00 0.00 74 1019.8
20260508114632 55 246 0.0 0.0 0.00 0.00 0.00 74 1019.9
20260508114108 54 246 0.0 0.0 0.00 0.00 0.00 74 1019.9
20260508113549 54 246 0.0 0.0 0.00 0.00 0.00 74 1019.8
20260508113038 55 246 0.0 0.0 0.00 0.00 0.00 73 1019.9
20260508112533 55 246 0.0 0.0 0.00 0.00 0.00 73 1019.8
20260508112000 55 246 0.0 0.0 0.00 0.00 0.00 73 1019.7
20260508111501 55 246 0.0 0.0 0.00 0.00 0.00 73 1019.7
20260508111001 55 246 0.0 0.0 0.00 0.00 0.00 73 1019.6
20260508110438 55 246 0.0 0.0 0.00 0.00 0.00 73 1019.6
20260508105925 55 246 0.0 0.0 0.00 0.00 0.00 72 1019.5
20260508105417 55 246 0.0 0.0 0.00 0.00 0.00 73 1019.3
20260508105140 55 246 0.0 0.0 0.00 0.00 0.00 73 1019.4
20260508104357 55 246 0.0 0.0 0.00 0.00 0.00 73 1019.4
20260508103845 55 246 0.0 0.0 0.00 0.00 0.00 72 1019.4
20260508103608 55 246 0.0 0.0 0.00 0.00 0.00 72 1019.4
20260508103105 55 246 0.0 0.0 0.00 0.00 0.00 71 1019.3
20260508102336 56 246 0.0 0.0 0.00 0.00 0.00 71 1019.3
20260508101832 56 246 0.0 0.0 0.00 0.00 0.00 71 1019.2
20260508101327 56 246 0.0 0.0 0.00 0.00 0.00 70 1019.1
20260508100823 56 246 0.0 0.0 0.00 0.00 0.00 70 1019.1
20260508100517 56 246 0.0 0.0 0.00 0.00 0.00 69 1019.0
20260508095801 57 246 0.0 0.0 0.00 0.00 0.00 69 1019.0
20260508095240 57 246 0.0 0.0 0.00 0.00 0.00 68 1019.0
20260508094738 57 246 0.0 0.0 0.00 0.00 0.00 68 1018.9
20260508094228 57 246 0.0 0.0 0.00 0.00 0.00 68 1018.8
20260508093718 57 246 0.0 0.0 0.00 0.00 0.00 68 1018.8
20260508093218 57 246 0.0 0.0 0.00 0.00 0.00 68 1018.7
20260508092642 58 246 0.0 0.0 0.00 0.00 0.00 67 1018.7
20260508092143 58 246 0.0 0.0 0.00 0.00 0.00 66 1018.7
20260508091642 58 246 0.0 0.0 0.00 0.00 0.00 66 1018.7
20260508091132 58 246 0.0 1.0 0.00 0.00 0.00 66 1018.7
20260508090628 58 246 0.0 1.0 0.00 0.00 0.00 66 1018.6
20260508090118 58 246 0.0 1.0 0.00 0.00 0.00 65 1018.5
20260508085542 58 246 0.0 1.0 0.00 0.00 0.00 65 1018.4
20260508085042 58 246 0.0 1.0 0.00 0.00 0.00 65 1018.3
20260508084534 58 246 0.0 0.0 0.00 0.00 0.00 64 1018.3
20260508084017 59 246 0.0 1.0 0.00 0.00 0.00 64 1018.2
20260508083508 59 246 0.0 1.0 0.00 0.00 0.00 63 1018.2
20260508083003 59 246 0.0 0.0 0.00 0.00 0.00 63 1018.2
20260508082500 59 246 0.0 0.0 0.00 0.00 0.00 63 1018.1
20260508081937 59 246 0.0 0.0 0.00 0.00 0.00 63 1018.0
20260508081436 59 246 0.0 0.0 0.00 0.00 0.00 62 1017.9
20260508080938 60 246 0.0 0.0 0.00 0.00 0.00 61 1017.9
20260508080412 60 246 0.0 0.0 0.00 0.00 0.00 61 1017.7
20260508075850 60 246 0.0 1.0 0.00 0.00 0.00 60 1017.6
20260508075828 61 246 0.0 1.0 0.00 0.00 0.00 59 1017.6
20260508075106 61 246 0.0 2.0 0.00 0.00 0.00 58 1017.5
20260508074320 61 246 0.0 4.0 0.00 0.00 0.00 58 1017.4
20260508073814 62 246 0.0 4.0 0.00 0.00 0.00 57 1017.3
20260508073528 62 249 0.0 4.0 0.00 0.00 0.00 57 1017.1
20260508072754 62 250 0.0 4.0 0.00 0.00 0.00 57 1016.9
20260508072244 62 250 0.0 2.0 0.00 0.00 0.00 57 1016.8
20260508071737 62 250 0.0 2.0 0.00 0.00 0.00 56 1016.7
20260508071228 63 250 0.0 2.0 0.00 0.00 0.00 55 1016.5
20260508070718 63 251 0.0 2.0 0.00 0.00 0.00 54 1016.4
20260508070208 63 245 0.0 5.0 0.00 0.00 0.00 54 1016.3
20260508065704 63 246 0.0 5.0 0.00 0.00 0.00 53 1016.2
20260508065406 63 293 0.0 4.0 0.00 0.00 0.00 53 1016.2
20260508064642 64 232 0.0 5.0 0.00 0.00 0.00 53 1015.9
20260508064136 64 232 0.0 5.0 0.00 0.00 0.00 52 1015.9
20260508063631 64 240 0.0 5.0 0.00 0.00 0.00 51 1015.7
20260508063559 65 182 0.0 1.0 0.00 0.00 0.00 51 1015.8
20260508062609 65 182 0.0 1.0 0.00 0.00 0.00 51 1015.7
20260508062100 65 182 0.0 2.0 0.00 0.00 0.00 50 1015.6
20260508061550 65 182 0.0 4.0 0.00 0.00 0.00 50 1015.6
20260508061041 65 179 0.0 5.0 0.00 0.00 0.00 49 1015.4
20260508060537 66 244 0.0 5.0 0.00 0.00 0.00 48 1015.4
20260508060523 66 230 0.0 3.0 0.00 0.00 0.00 47 1015.1
20260508055801 66 229 1.0 6.0 0.00 0.00 0.00 47 1015.1
20260508055038 67 229 1.0 6.0 0.00 0.00 0.00 46 1015.1
20260508054531 67 239 0.0 8.0 0.00 0.00 0.00 47 1015.0
20260508054034 67 234 1.0 8.0 0.00 0.00 0.00 47 1015.0
20260508053525 67 246 0.0 4.0 0.00 0.00 0.00 46 1015.0
20260508053249 67 293 0.0 3.0 0.00 0.00 0.00 45 1014.8
20260508053010 67 294 0.0 5.0 0.00 0.00 0.00 46 1014.8
20260508052506 67 288 0.0 2.0 0.00 0.00 0.00 45 1014.7
20260508051515 67 252 0.0 4.0 0.00 0.00 0.00 45 1014.7
20260508051013 67 252 0.0 4.0 0.00 0.00 0.00 45 1014.7
20260508050505 67 273 0.0 4.0 0.00 0.00 0.00 46 1014.7
20260508045952 68 294 0.0 4.0 0.00 0.00 0.00 44 1014.8
20260508045454 68 300 0.0 3.0 0.00 0.00 0.00 45 1014.6
20260508044939 68 224 0.0 8.0 0.00 0.00 0.00 45 1014.6
20260508044429 68 226 0.0 8.0 0.00 0.00 0.00 44 1014.5
20260508043930 68 233 0.0 5.0 0.00 0.00 0.00 45 1014.4
20260508043422 68 233 0.0 5.0 0.00 0.00 0.00 44 1014.4
20260508043413 68 228 1.0 8.0 0.00 0.00 0.00 45 1014.4
20260508042408 68 232 1.0 8.0 0.00 0.00 0.00 45 1014.3
20260508042357 68 309 1.0 6.0 0.00 0.00 0.00 44 1014.3
20260508041637 68 216 1.0 6.0 0.00 0.00 0.00 44 1014.3
20260508041136 68 234 0.0 4.0 0.00 0.00 0.00 44 1014.4
20260508040358 68 256 0.0 5.0 0.00 0.00 0.00 45 1014.4
20260508035841 68 258 0.0 4.0 0.00 0.00 0.00 44 1014.4
20260508035332 68 292 0.0 3.0 0.00 0.00 0.00 44 1014.4
20260508035056 68 299 0.0 5.0 0.00 0.00 0.00 44 1014.4
20260508034317 68 299 1.0 5.0 0.00 0.00 0.00 43 1014.4
20260508033807 68 240 0.0 2.0 0.00 0.00 0.00 44 1014.5
20260508033258 68 243 0.0 2.0 0.00 0.00 0.00 44 1014.5
20260508032752 68 243 0.0 4.0 0.00 0.00 0.00 44 1014.4
20260508032245 68 232 0.0 4.0 0.00 0.00 0.00 44 1014.5
20260508031736 68 228 1.0 8.0 0.00 0.00 0.00 44 1014.6
20260508031228 68 229 1.0 8.0 0.00 0.00 0.00 44 1014.6
20260508030720 68 231 1.0 6.0 0.00 0.00 0.00 43 1014.6
20260508030209 68 224 1.0 6.0 0.00 0.00 0.00 43 1014.8
20260508025659 68 229 0.0 7.0 0.00 0.00 0.00 44 1014.8
20260508025149 68 229 1.0 7.0 0.00 0.00 0.00 43 1014.8
20260508024639 68 187 1.0 5.0 0.00 0.00 0.00 43 1014.8
20260508024612 68 184 1.0 5.0 0.00 0.00 0.00 43 1014.8
20260508023623 69 171 0.0 5.0 0.00 0.00 0.00 44 1014.8
20260508023109 69 170 0.0 5.0 0.00 0.00 0.00 47 1014.9
20260508022559 68 130 0.0 2.0 0.00 0.00 0.00 45 1015.0
20260508022053 68 130 0.0 2.0 0.00 0.00 0.00 46 1015.1
20260508021543 68 130 0.0 4.0 0.00 0.00 0.00 47 1015.2
20260508021041 68 130 0.0 4.0 0.00 0.00 0.00 46 1015.2
20260508020531 68 127 0.0 3.0 0.00 0.00 0.00 45 1015.3
20260508020025 68 127 0.0 3.0 0.00 0.00 0.00 46 1015.4
20260508015518 68 129 0.0 2.0 0.00 0.00 0.00 47 1015.4
20260508015009 67 129 0.0 2.0 0.00 0.00 0.00 49 1015.5
20260508014459 67 130 0.0 2.0 0.00 0.00 0.00 47 1015.5
20260508013953 67 130 0.0 5.0 0.00 0.00 0.00 47 1015.6
20260508013447 67 130 1.0 5.0 0.00 0.00 0.00 47 1015.5
20260508012937 67 227 0.0 5.0 0.00 0.00 0.00 46 1015.8
20260508012437 66 290 0.0 2.0 0.00 0.00 0.00 49 1015.8
20260508011922 66 292 0.0 4.0 0.00 0.00 0.00 48 1016.0
20260508011412 66 292 0.0 4.0 0.00 0.00 0.00 48 1016.2
20260508010901 66 248 0.0 5.0 0.00 0.00 0.00 50 1016.3
20260508010351 66 302 0.0 2.0 0.00 0.00 0.00 50 1016.4
20260508005842 65 302 0.0 2.0 0.00 0.00 0.00 52 1016.4
20260508005341 65 302 0.0 4.0 0.00 0.00 0.00 50 1016.4
20260508004841 64 302 0.0 4.0 0.00 0.00 0.00 50 1016.5
20260508004338 65 304 0.0 1.0 0.00 0.00 0.00 49 1016.6
20260508003828 64 304 0.0 1.0 0.00 0.00 0.00 53 1016.6
20260508003317 64 304 0.0 4.0 0.00 0.00 0.00 50 1016.7
20260508002810 64 304 0.0 4.0 0.00 0.00 0.00 50 1016.7
20260508002309 64 338 0.0 2.0 0.00 0.00 0.00 53 1016.8
20260508001809 64 341 0.0 1.0 0.00 0.00 0.00 51 1016.8
20260508001303 63 341 0.0 3.0 0.00 0.00 0.00 51 1016.8
20260508000754 63 341 0.0 3.0 0.00 0.00 0.00 51 1016.9
20260508000254 62 18 0.0 2.0 0.00 0.00 0.00 54 1016.9
20260507235749 62 50 0.0 1.0 0.00 0.00 0.00 52 1016.9
20260507235242 63 86 0.0 3.0 0.00 0.00 0.00 52 1017.0
20260507234739 62 86 0.0 3.0 0.00 0.00 0.00 53 1017.0
20260507234500 62 81 0.0 0.0 0.00 0.00 0.00 52 1016.8
20260507233730 61 81 0.0 0.0 0.00 0.00 0.00 55 1016.7
20260507233450 60 81 0.0 0.0 0.00 0.00 0.00 55 1016.8
20260507232931 60 81 0.0 0.0 0.00 0.00 0.00 56 1016.7
20260507232207 60 81 0.0 0.0 0.00 0.00 0.00 56 1016.8
20260507231703 60 81 0.0 0.0 0.00 0.00 0.00 55 1016.8
20260507231133 59 81 0.0 0.0 0.00 0.00 0.00 55 1016.9
20260507230625 59 81 0.0 0.0 0.00 0.00 0.00 57 1016.9
20260507230110 58 82 0.0 0.0 0.00 0.00 0.00 59 1017.0
20260507225612 58 82 0.0 0.0 0.00 0.00 0.00 59 1016.9
20260507225054 58 82 0.0 0.0 0.00 0.00 0.00 60 1016.9
20260507224553 58 82 0.0 0.0 0.00 0.00 0.00 58 1016.8
20260507224046 57 82 0.0 0.0 0.00 0.00 0.00 59 1016.7
20260507223539 57 82 0.0 0.0 0.00 0.00 0.00 58 1016.6
20260507223033 56 86 0.0 0.0 0.00 0.00 0.00 59 1016.6